User: anonymous   Login
Location: Fort Wayne
(41.1310°N, 85.1290°W)
Time: 15:02:30
(UTC-04:00)
Language:

Cosmos 2082 - Orbit

View from above orbital plane
View from above orbital plane
View from above satellite
View from above satellite

Ground track
Ground track

The orbit data is extracted from the following two-line orbital elements,

1 20624U 90046A   16270.50920371 -.00000109  00000-0 -32623-4 0  9998
2 20624  71.0402  46.4462 0013001  66.4876 293.7611 14.14201272359918
Epoch (UTC): 26 September 2016 12:13:15
Eccentricity: 0.0013001
inclination: 71.0402°
perigee height: 835 km
apogee height: 854 km
right ascension of ascending node: 46.4462°
argument of perigee: 66.4876°
revolutions per day: 14.14201272
mean anomaly at epoch: 293.7611°
orbit number at epoch: 35991

The dashed part of the orbit path shows where the satellite is in the earth's shadow,  

DLR